Weather History for Lamoni, IA

Change the Weather History Date:

Friday, December 2, 2011

  Actual Average Record
Temperature  
Mean Temperature 27 °F 31 °F  
Max Temperature 39 °F 40 °F 64 °F (1962)
Min Temperature 14 °F 23 °F 0 °F (1985)
Degree Days  
Heating Degree Days 38 34  
Month to date heating degree days 70 67  
Since 1 July heating degree days 1223 1315  
Cooling Degree Days 0 0  
Month to date cooling degree days 0 0  
Year to date cooling degree days 1144 946  
Moisture  
Dew Point 23 °F    
Average Humidity 81    
Maximum Humidity 92    
Minimum Humidity 69    
Precipitation  
Precipitation 0.01 in 0.05 in 0.35 in (1990)
Month to date precipitation 0.01 0.11  
Year to date precipitation 33.72  
Sea Level Pressure  
Sea Level Pressure 30.33 in    
Wind  
Wind Speed 8 mph (SSE)    
Max Wind Speed 17 mph    
Max Gust Speed 22 mph    
Visibility 9 miles    
Events Rain    
T = Trace of Precipitation, MM = Missing Value Source: NWS Daily Summary

Daily Weather History Graph

Daily Weather History Graph

Search for Another Location

Airport:

Trip Planner

Search our weather history database for the weather conditions in past years. The results will help you decide how hot, cold, wet, or windy it might be!

Date:

Astronomy

Dec. 02, 2011 Rise Set
Actual Time 7:20 AM CST 4:48 PM CST
Civil Twilight 6:50 AM CST 5:19 PM CST
Nautical Twilight 6:16 AM CST 5:53 PM CST
Astronomical Twilight 5:43 AM CST 6:26 PM CST
Moon 12:30 PM CST (12/2) No Moon Set
Length of Visible Light 10h 28m
Length of Day
9h 28m
First Quarter, 53% of the Moon is Illuminated
Dec 2
First Quarter
Dec 10
Full
Dec 17
Last Quarter
Dec 24
New
Jan 1
First Quarter

Hourly Weather History & Observations

Time (CST) Temp. Windchill Dew Point Humidity Pressure Visibility Wind Dir Wind Speed Gust Speed Precip Events Conditions
12:53 AM 23.0 °F 12.4 °F 18.0 °F 81% 30.47 in 10.0 mi North 10.4 mph - N/A   Clear
1:53 AM 19.9 °F 10.1 °F 17.1 °F 89% 30.47 in 10.0 mi North 8.1 mph - N/A   Clear
2:53 AM 18.0 °F 7.7 °F 15.1 °F 88% 30.47 in 10.0 mi NNW 8.1 mph - N/A   Clear
3:53 AM 17.1 °F 8.7 °F 12.9 °F 84% 30.47 in 10.0 mi North 5.8 mph - N/A   Clear
5:53 AM 15.1 °F 6.4 °F 10.9 °F 84% 30.47 in 10.0 mi North 5.8 mph - N/A   Clear
6:53 AM 14.0 °F 8.2 °F 10.0 °F 84% 30.48 in 10.0 mi North 3.5 mph - N/A   Clear
7:53 AM 16.0 °F 10.4 °F 10.9 °F 81% 30.46 in 10.0 mi NE 3.5 mph - N/A   Clear
8:53 AM 18.0 °F 11.1 °F 12.9 °F 81% 30.46 in 10.0 mi ESE 4.6 mph - N/A   Clear
9:53 AM 23.0 °F 17.0 °F 17.1 °F 78% 30.45 in 10.0 mi Variable 4.6 mph - N/A   Clear
10:11 AM 23.0 °F 18.4 °F 15.8 °F 74% 30.41 in 10.0 mi SE 3.5 mph - N/A   Mostly Cloudy
10:53 AM 28.0 °F 20.8 °F 19.0 °F 69% 30.44 in 10.0 mi SSE 6.9 mph - N/A   Scattered Clouds
11:53 AM 30.9 °F 22.8 °F 23.0 °F 72% 30.40 in 10.0 mi South 9.2 mph - N/A   Partly Cloudy
12:40 PM 30.2 °F 21.3 °F 23.0 °F 75% 30.34 in 10.0 mi South 10.4 mph - N/A   Mostly Cloudy
12:53 PM 30.0 °F 22.4 °F 24.1 °F 79% 30.38 in 10.0 mi South 8.1 mph - N/A   Overcast
1:53 PM 32.0 °F 23.0 °F 24.1 °F 73% 30.34 in 10.0 mi SE 11.5 mph - N/A   Clear
2:53 PM 33.1 °F 24.4 °F 25.0 °F 72% 30.32 in 10.0 mi SSE 11.5 mph - N/A   Clear
3:53 PM 32.0 °F 24.2 °F 25.0 °F 75% 30.30 in 9.0 mi SSE 9.2 mph - N/A   Clear
4:53 PM 30.9 °F 23.5 °F 26.1 °F 82% 30.28 in 7.0 mi South 8.1 mph - N/A   Clear
5:53 PM 32.0 °F 24.8 °F 27.0 °F 82% 30.28 in 7.0 mi SSE 8.1 mph - N/A   Mostly Cloudy
6:53 PM 33.1 °F 26.1 °F 28.0 °F 82% 30.26 in 8.0 mi SSE 8.1 mph - N/A   Overcast
7:36 PM 33.8 °F 25.8 °F 28.4 °F 81% 30.20 in 9.0 mi SSE 10.4 mph 18.4 mph N/A   Overcast
7:53 PM 34.0 °F 25.0 °F 28.9 °F 82% 30.24 in 9.0 mi SSE 12.7 mph - N/A   Overcast
8:40 PM 35.6 °F 26.2 °F 30.2 °F 81% 30.17 in 9.0 mi SSE 15.0 mph 21.9 mph 0.00 in   Overcast
8:53 PM 36.0 °F 26.7 °F 30.0 °F 79% 30.21 in 9.0 mi SSE 15.0 mph 21.9 mph 0.01 in   Overcast
9:03 PM 35.6 °F 26.6 °F 30.2 °F 81% 30.16 in 9.0 mi SSE 13.8 mph 19.6 mph N/A   Overcast
9:53 PM 37.0 °F 28.5 °F 30.9 °F 79% 30.20 in 9.0 mi South 13.8 mph 19.6 mph 0.01 in   Overcast
10:04 PM 37.4 °F 30.3 °F 30.2 °F 75% 30.15 in 9.0 mi South 10.4 mph 16.1 mph N/A   Overcast
10:53 PM 39.0 °F 31.4 °F 32.0 °F 76% 30.17 in 9.0 mi SSE 12.7 mph 18.4 mph N/A   Overcast
11:53 PM 39.0 °F 34.0 °F 35.1 °F 86% 30.15 in 6.0 mi South 6.9 mph - 0.01 in Rain Light Rain